Weather Roundup
Issued by NWS Chicago, IL

Home | Current Version | Previous Version | Graphics & Text | Print | Product List | Glossary On
Versions: 1 2 3 4 5 6 7 8 9 10 11 12 13 14 15 16 17 18 19 20 21 22 23 24 25 26 27 28 29 30 31 32 33 34 35 36 37 38 39 40 41 42 43 44 45 46 47 48 49 50
000
NZUS59 KLOT 171300
HRRLOT

CHICAGO AREA WEATHER ROUNDUP
NATIONAL WEATHER SERVICE CHICAGO/ROMEOVILLE IL
800 AM CDT WED SEP 17 2014

NOTE: "FAIR" INDICATES FEW OR NO CLOUDS BELOW 12,000 FEET WITH NO
SIGNIFICANT WEATHER AND/OR OBSTRUCTIONS TO VISIBILITY.

* THESE STATIONS ARE NOT UNDER NWS QUALITY CONTROL. THEY ALSO MAY NOT
  REPORT WEATHER SUCH AS PRECIPITATION OR FOG.

ILZ005-006-012>014-019>023-171400-
NORTHEAST ILLINOIS

CITY           SKY/WX    TMP DP  RH WIND       PRES   REMARKS
OHARE          PTSUNNY   52  47  83 CALM      30.05S
MIDWAY         PTSUNNY   53  47  79 CALM      30.05F
AURORA         SUNNY     44  41  89 CALM      30.06S
WAUKEGAN       SUNNY     52  48  86 CALM      30.04S
DUPAGE AIRPORT SUNNY     48  46  93 CALM      30.05S
WHEELING       SUNNY     52  46  80 CALM      30.06S
NORTHERLY IS     N/A     54  44  69 W7          N/A
$$

WIZ051-052-058>065-066-070>072-171400-
SOUTHEAST WISCONSIN

CITY           SKY/WX    TMP DP  RH WIND       PRES   REMARKS
MILWAUKEE      MOSUNNY   52  45  77 CALM      30.05R
KENOSHA*       SUNNY     48  47  96 CALM      30.05S
RACINE*        SUNNY     51  44  77 W5        30.06S
WAUKESHA       MOSUNNY   46  45  93 S3        30.05S
$$

INZ001>003-010>013-019-020-171400-
NORTHWEST INDIANA

CITY           SKY/WX    TMP DP  RH WIND       PRES   REMARKS
GARY*          PTSUNNY   50  48  93 S3        30.06F
MICHIGAN CITY* NOT AVBL
RENSSELAER*    NOT AVBL
VALPARAISO     FOG       49  46  90 CALM      30.07S VSB 3/4
$$

LMZ740>746-171400-
SOUTHERN LAKE MICHIGAN

STATION/POSITION TIME  SKY/WX   TEMP WIND        PRES    VSBY
                                AIR  DIR/SP/G
                 (UTC)          (F)  (DEG/KT/KT) (MB)    (MI)
HARRISON CRIB    1200            55  200/ 13/ 14   N/A
BURNHAM HARBOR   1300            54  250/  8/  8   N/A
CALUMET HARBOR   1200            52  220/  3/  5 1016.6R
BURNS HARBOR     NOT AVBL
MICHIGAN CITY    1200            51  130/  9/ 12   N/A
$$

ABBREVIATIONS USED IN REMARKS
   TC - TEMPERATURE IN CELSIUS
  WCI - WIND CHILL INDEX
   HX - HEAT INDEX
  VSB - VISIBILITY
$$


USA.gov is the U.S. government's official web portal to all federal, state and local government web resources and services.